Saint Bonnet de Bellac- Haute Vienne - France
Donnes mto: jeudi, 29/03/2012
Date Horaire Temp. E. Hum. E. P.atmo. Pluie Vent Direction Direction Ensoleilleme Solaire P. de rose Temp au vent Rafales
29/03/2012 00:00 12,2 C 62 % 1023,7 hPa 0,0 mm 1,1 km/h (1 Bft) NE 45 0 min 0 W/m 5,1 C 12,2 C 1,1 km/h (1 Bft)
29/03/2012 00:10 12,3 C 62 % 1023,7 hPa 0,0 mm 0,0 km/h (0 Bft) E-NE 67 0 min 0 W/m 5,2 C 12,3 C 1,4 km/h (1 Bft)
29/03/2012 00:20 12,3 C 62 % 1023,7 hPa 0,0 mm 0,0 km/h (0 Bft) N-NE 22 0 min 0 W/m 5,2 C 12,3 C 0,0 km/h (0 Bft)
29/03/2012 00:30 12,0 C 62 % 1023,6 hPa 0,0 mm 0,0 km/h (0 Bft) N-NE 22 0 min 0 W/m 4,9 C 12,0 C 0,0 km/h (0 Bft)
29/03/2012 00:40 11,6 C 63 % 1023,6 hPa 0,0 mm 0,0 km/h (0 Bft) NE 45 0 min 0 W/m 4,8 C 11,6 C 3,2 km/h (1 Bft)
29/03/2012 00:50 11,4 C 64 % 1023,5 hPa 0,0 mm 0,0 km/h (0 Bft) NE 45 0 min 0 W/m 4,8 C 11,4 C 0,0 km/h (0 Bft)
29/03/2012 01:00 11,4 C 65 % 1023,5 hPa 0,0 mm 0,0 km/h (0 Bft) N-NE 22 0 min 0 W/m 5,1 C 11,4 C 0,0 km/h (0 Bft)
29/03/2012 01:10 11,1 C 64 % 1023,5 hPa 0,0 mm 0,0 km/h (0 Bft) N-NE 22 0 min 0 W/m 4,6 C 11,1 C 0,0 km/h (0 Bft)
29/03/2012 01:20 10,8 C 65 % 1023,4 hPa 0,0 mm 0,0 km/h (0 Bft) N-NE 22 0 min 0 W/m 4,5 C 10,8 C 0,0 km/h (0 Bft)
29/03/2012 01:30 10,5 C 66 % 1023,4 hPa 0,0 mm 0,0 km/h (0 Bft) N-NE 22 0 min 0 W/m 4,4 C 10,5 C 0,0 km/h (0 Bft)
29/03/2012 01:40 10,3 C 67 % 1023,3 hPa 0,0 mm 0,4 km/h (0 Bft) N-NE 22 0 min 0 W/m 4,4 C 10,3 C 4,0 km/h (1 Bft)
29/03/2012 01:50 10,3 C 68 % 1023,2 hPa 0,0 mm 0,0 km/h (0 Bft) N-NE 22 0 min 0 W/m 4,7 C 10,3 C 0,0 km/h (0 Bft)
29/03/2012 02:00 10,2 C 68 % 1023,2 hPa 0,0 mm 0,0 km/h (0 Bft) N-NE 22 0 min 0 W/m 4,6 C 10,2 C 0,0 km/h (0 Bft)
29/03/2012 02:10 10,2 C 69 % 1023,1 hPa 0,0 mm 0,4 km/h (0 Bft) N-NE 22 0 min 0 W/m 4,8 C 10,2 C 0,4 km/h (0 Bft)
29/03/2012 02:20 10,3 C 69 % 1023,0 hPa 0,0 mm 0,0 km/h (0 Bft) N-NE 22 0 min 0 W/m 4,9 C 10,3 C 0,0 km/h (0 Bft)
29/03/2012 02:30 10,3 C 69 % 1022,9 hPa 0,0 mm 0,0 km/h (0 Bft) N-NE 22 0 min 0 W/m 4,9 C 10,3 C 0,0 km/h (0 Bft)
29/03/2012 02:40 10,0 C 70 % 1023,0 hPa 0,0 mm 0,0 km/h (0 Bft) N-NE 22 0 min 0 W/m 4,8 C 10,0 C 0,0 km/h (0 Bft)
29/03/2012 02:50 9,8 C 70 % 1023,1 hPa 0,0 mm 0,0 km/h (0 Bft) NE 45 0 min 0 W/m 4,6 C 9,8 C 0,0 km/h (0 Bft)
29/03/2012 03:02 9,5 C 70 % 1023,0 hPa 0,0 mm 0,0 km/h (0 Bft) N 360 0 min 0 W/m 4,3 C 9,5 C 0,0 km/h (0 Bft)
29/03/2012 03:10 9,4 C 71 % 1022,8 hPa 0,0 mm 0,4 km/h (0 Bft) N-NE 22 0 min 0 W/m 4,4 C 9,4 C 0,4 km/h (0 Bft)
29/03/2012 03:20 9,4 C 71 % 1022,8 hPa 0,0 mm 0,4 km/h (0 Bft) N-NE 22 0 min 0 W/m 4,4 C 9,4 C 3,2 km/h (1 Bft)
29/03/2012 03:30 9,3 C 72 % 1022,8 hPa 0,0 mm 1,4 km/h (1 Bft) NE 45 0 min 0 W/m 4,5 C 9,3 C 3,2 km/h (1 Bft)
29/03/2012 03:40 9,2 C 72 % 1022,7 hPa 0,0 mm 4,3 km/h (1 Bft) N-NE 22 0 min 0 W/m 4,4 C 9,2 C 7,2 km/h (2 Bft)
29/03/2012 03:50 9,2 C 73 % 1022,8 hPa 0,0 mm 3,2 km/h (1 Bft) N-NE 22 0 min 0 W/m 4,6 C 9,2 C 4,0 km/h (1 Bft)
29/03/2012 04:00 9,2 C 73 % 1022,6 hPa 0,0 mm 0,0 km/h (0 Bft) N 360 0 min 0 W/m 4,6 C 9,2 C 0,0 km/h (0 Bft)
29/03/2012 04:10 8,9 C 73 % 1022,6 hPa 0,0 mm 1,1 km/h (1 Bft) N 360 0 min 0 W/m 4,3 C 8,9 C 4,3 km/h (1 Bft)
29/03/2012 04:20 8,8 C 74 % 1022,5 hPa 0,0 mm 0,7 km/h (0 Bft) N 360 0 min 0 W/m 4,4 C 8,8 C 3,2 km/h (1 Bft)
29/03/2012 04:30 8,7 C 74 % 1022,5 hPa 0,0 mm 2,9 km/h (1 Bft) N-NE 22 0 min 0 W/m 4,3 C 8,7 C 7,2 km/h (2 Bft)
29/03/2012 04:40 8,6 C 75 % 1022,5 hPa 0,0 mm 0,0 km/h (0 Bft) N 360 0 min 0 W/m 4,4 C 8,6 C 0,0 km/h (0 Bft)
29/03/2012 04:50 8,3 C 75 % 1022,4 hPa 0,0 mm 0,0 km/h (0 Bft) N 360 0 min 0 W/m 4,1 C 8,3 C 0,0 km/h (0 Bft)
29/03/2012 05:00 7,9 C 75 % 1022,4 hPa 0,0 mm 1,4 km/h (1 Bft) N-NE 22 0 min 0 W/m 3,7 C 7,9 C 3,6 km/h (1 Bft)
29/03/2012 05:10 7,8 C 76 % 1022,5 hPa 0,0 mm 0,4 km/h (0 Bft) N 360 0 min 0 W/m 3,8 C 7,8 C 0,4 km/h (0 Bft)
29/03/2012 05:20 7,8 C 77 % 1022,5 hPa 0,0 mm 0,0 km/h (0 Bft) N-NE 22 0 min 0 W/m 4,0 C 7,8 C 0,0 km/h (0 Bft)
29/03/2012 05:30 7,7 C 77 % 1022,5 hPa 0,0 mm 0,0 km/h (0 Bft) N-NE 22 0 min 0 W/m 3,9 C 7,7 C 0,0 km/h (0 Bft)
29/03/2012 05:40 7,4 C 77 % 1022,4 hPa 0,0 mm 0,0 km/h (0 Bft) N-NE 22 0 min 0 W/m 3,6 C 7,4 C 0,0 km/h (0 Bft)
29/03/2012 05:50 7,1 C 77 % 1022,4 hPa 0,0 mm 0,0 km/h (0 Bft) N-NE 22 0 min 0 W/m 3,3 C 7,1 C 0,0 km/h (0 Bft)
29/03/2012 06:00 6,9 C 77 % 1022,4 hPa 0,0 mm 0,0 km/h (0 Bft) N-NE 22 0 min 0 W/m 3,2 C 6,9 C 0,0 km/h (0 Bft)
29/03/2012 06:10 6,6 C 78 % 1022,3 hPa 0,0 mm 0,0 km/h (0 Bft) N-NE 22 0 min 0 W/m 3,0 C 6,6 C 0,0 km/h (0 Bft)
29/03/2012 06:20 6,4 C 78 % 1022,2 hPa 0,0 mm 0,0 km/h (0 Bft) N-NE 22 0 min 0 W/m 2,8 C 6,4 C 0,0 km/h (0 Bft)
29/03/2012 06:30 6,3 C 79 % 1022,2 hPa 0,0 mm 0,0 km/h (0 Bft) N-NE 22 0 min 0 W/m 2,9 C 6,3 C 0,0 km/h (0 Bft)
29/03/2012 06:40 6,1 C 79 % 1022,1 hPa 0,0 mm 0,0 km/h (0 Bft) N-NE 22 0 min 0 W/m 2,7 C 6,1 C 0,0 km/h (0 Bft)
29/03/2012 06:50 5,8 C 80 % 1022,1 hPa 0,0 mm 0,0 km/h (0 Bft) N-NE 22 0 min 0 W/m 2,6 C 5,8 C 0,0 km/h (0 Bft)
29/03/2012 07:00 5,7 C 80 % 1022,1 hPa 0,0 mm 0,0 km/h (0 Bft) N-NE 22 0 min 0 W/m 2,5 C 5,7 C 0,0 km/h (0 Bft)
29/03/2012 07:10 5,6 C 81 % 1022,1 hPa 0,0 mm 0,0 km/h (0 Bft) NE 45 0 min 0 W/m 2,6 C 5,6 C 0,0 km/h (0 Bft)
29/03/2012 07:20 5,5 C 82 % 1022,2 hPa 0,0 mm 0,0 km/h (0 Bft) E-NE 67 0 min 0 W/m 2,7 C 5,5 C 0,0 km/h (0 Bft)
29/03/2012 07:30 5,4 C 82 % 1022,3 hPa 0,0 mm 0,0 km/h (0 Bft) E-NE 67 0 min 0 W/m 2,6 C 5,4 C 0,0 km/h (0 Bft)
29/03/2012 07:40 5,3 C 82 % 1022,3 hPa 0,0 mm 0,0 km/h (0 Bft) E-NE 67 0 min 0 W/m 2,5 C 5,3 C 0,0 km/h (0 Bft)
29/03/2012 07:50 5,2 C 82 % 1022,3 hPa 0,0 mm 0,0 km/h (0 Bft) E-NE 67 0 min 0 W/m 2,4 C 5,2 C 0,0 km/h (0 Bft)
29/03/2012 08:00 5,1 C 82 % 1022,4 hPa 0,0 mm 0,0 km/h (0 Bft) NE 45 2 min 0 W/m 2,3 C 5,1 C 0,0 km/h (0 Bft)
29/03/2012 08:10 5,0 C 83 % 1022,4 hPa 0,0 mm 0,0 km/h (0 Bft) N 360 2 min 0 W/m 2,4 C 5,0 C 0,0 km/h (0 Bft)
29/03/2012 08:20 5,0 C 83 % 1022,5 hPa 0,0 mm 0,0 km/h (0 Bft) N 360 2 min 0 W/m 2,4 C 5,0 C 0,0 km/h (0 Bft)
29/03/2012 08:30 5,1 C 83 % 1022,5 hPa 0,0 mm 0,0 km/h (0 Bft) N-NE 22 2 min 0 W/m 2,5 C 5,1 C 0,0 km/h (0 Bft)
29/03/2012 08:40 5,3 C 84 % 1022,6 hPa 0,0 mm 0,0 km/h (0 Bft) N-NE 22 2 min 0 W/m 2,8 C 5,3 C 0,0 km/h (0 Bft)
29/03/2012 08:50 5,5 C 84 % 1022,6 hPa 0,0 mm 0,0 km/h (0 Bft) N-NE 22 2 min 0 W/m 3,0 C 5,5 C 0,0 km/h (0 Bft)
29/03/2012 09:00 6,1 C 85 % 1022,6 hPa 0,0 mm 0,0 km/h (0 Bft) N-NE 22 2 min 0 W/m 3,8 C 6,1 C 0,0 km/h (0 Bft)
29/03/2012 09:10 6,8 C 86 % 1022,5 hPa 0,0 mm 0,0 km/h (0 Bft) N-NE 22 2 min 0 W/m 4,6 C 6,8 C 0,0 km/h (0 Bft)
29/03/2012 09:20 7,4 C 85 % 1022,7 hPa 0,0 mm 0,0 km/h (0 Bft) N-NE 22 2 min 0 W/m 5,0 C 7,4 C 0,0 km/h (0 Bft)
29/03/2012 09:30 8,1 C 84 % 1022,7 hPa 0,0 mm 0,0 km/h (0 Bft) N-NE 22 2 min 0 W/m 5,6 C 8,1 C 0,0 km/h (0 Bft)
29/03/2012 09:40 8,8 C 82 % 1022,8 hPa 0,0 mm 0,7 km/h (0 Bft) NE 45 2 min 0 W/m 5,9 C 8,8 C 3,6 km/h (1 Bft)
29/03/2012 09:50 9,3 C 80 % 1022,9 hPa 0,0 mm 0,7 km/h (0 Bft) N-NE 22 2 min 0 W/m 6,0 C 9,3 C 0,7 km/h (0 Bft)
29/03/2012 10:00 9,8 C 78 % 1023,2 hPa 0,0 mm 1,8 km/h (1 Bft) N-NE 22 2 min 0 W/m 6,1 C 9,8 C 2,9 km/h (1 Bft)
29/03/2012 10:10 10,3 C 78 % 1023,2 hPa 0,0 mm 2,2 km/h (1 Bft) N-NO 337 2 min 0 W/m 6,6 C 10,3 C 3,6 km/h (1 Bft)
29/03/2012 10:20 11,1 C 78 % 1023,3 hPa 0,0 mm 4,0 km/h (1 Bft) N-NE 22 2 min 0 W/m 7,4 C 11,1 C 7,6 km/h (2 Bft)
29/03/2012 10:30 12,1 C 77 % 1023,3 hPa 0,0 mm 4,0 km/h (1 Bft) N 360 2 min 0 W/m 8,2 C 12,1 C 6,8 km/h (2 Bft)
29/03/2012 10:40 13,1 C 76 % 1023,4 hPa 0,0 mm 3,2 km/h (1 Bft) NE 45 2 min 0 W/m 9,0 C 13,1 C 6,8 km/h (2 Bft)
29/03/2012 10:50 14,1 C 73 % 1023,4 hPa 0,0 mm 3,2 km/h (1 Bft) N-NE 22 2 min 0 W/m 9,3 C 14,1 C 4,0 km/h (1 Bft)
29/03/2012 11:00 14,9 C 70 % 1023,5 hPa 0,0 mm 0,0 km/h (0 Bft) N-NE 22 2 min 0 W/m 9,5 C 14,9 C 0,0 km/h (0 Bft)
29/03/2012 11:10 16,1 C 67 % 1023,5 hPa 0,0 mm 2,5 km/h (1 Bft) NO 315 2 min 0 W/m 10,0 C 16,1 C 4,0 km/h (1 Bft)
29/03/2012 11:20 16,9 C 65 % 1023,6 hPa 0,0 mm 2,2 km/h (1 Bft) E-NE 67 2 min 0 W/m 10,3 C 16,9 C 4,0 km/h (1 Bft)
29/03/2012 11:30 17,8 C 62 % 1023,6 hPa 0,0 mm 4,0 km/h (1 Bft) NE 45 2 min 0 W/m 10,4 C 17,8 C 6,5 km/h (2 Bft)
29/03/2012 11:40 18,4 C 60 % 1023,4 hPa 0,0 mm 3,6 km/h (1 Bft) N-NE 22 2 min 0 W/m 10,5 C 18,4 C 3,6 km/h (1 Bft)
29/03/2012 11:50 18,9 C 58 % 1023,5 hPa 0,0 mm 5,8 km/h (2 Bft) E-NE 67 2 min 0 W/m 10,5 C 18,9 C 9,4 km/h (2 Bft)
29/03/2012 12:00 19,4 C 57 % 1023,4 hPa 0,0 mm 5,0 km/h (1 Bft) N-NE 22 2 min 0 W/m 10,7 C 19,4 C 7,9 km/h (2 Bft)
29/03/2012 12:10 19,9 C 56 % 1023,4 hPa 0,0 mm 4,0 km/h (1 Bft) NE 45 2 min 0 W/m 10,9 C 19,9 C 7,6 km/h (2 Bft)
29/03/2012 12:20 20,4 C 54 % 1023,3 hPa 0,0 mm 4,7 km/h (1 Bft) N-NE 22 2 min 0 W/m 10,8 C 20,4 C 7,9 km/h (2 Bft)
29/03/2012 12:30 20,8 C 51 % 1023,4 hPa 0,0 mm 4,7 km/h (1 Bft) NE 45 2 min 0 W/m 10,3 C 20,8 C 4,7 km/h (1 Bft)
29/03/2012 12:40 21,1 C 51 % 1023,4 hPa 0,0 mm 7,2 km/h (2 Bft) NE 45 2 min 0 W/m 10,6 C 21,1 C 8,6 km/h (2 Bft)
29/03/2012 12:50 21,6 C 50 % 1023,1 hPa 0,0 mm 7,6 km/h (2 Bft) NE 45 2 min 0 W/m 10,7 C 21,6 C 12,2 km/h (2 Bft)
29/03/2012 13:00 21,8 C 49 % 1023,2 hPa 0,0 mm 8,3 km/h (2 Bft) N-NE 22 2 min 0 W/m 10,6 C 21,8 C 8,3 km/h (2 Bft)
29/03/2012 13:10 22,0 C 47 % 1023,1 hPa 0,0 mm 10,8 km/h (2 Bft) E 90 2 min 0 W/m 10,2 C 22,0 C 20,5 km/h (4 Bft)
29/03/2012 13:20 22,0 C 47 % 1023,0 hPa 0,0 mm 8,3 km/h (2 Bft) N 360 2 min 0 W/m 10,2 C 22,0 C 11,5 km/h (2 Bft)
29/03/2012 13:30 22,1 C 45 % 1022,9 hPa 0,0 mm 6,8 km/h (2 Bft) N-NE 22 2 min 0 W/m 9,6 C 22,1 C 9,4 km/h (2 Bft)
29/03/2012 13:40 22,1 C 44 % 1022,9 hPa 0,0 mm 7,9 km/h (2 Bft) NE 45 2 min 0 W/m 9,3 C 22,1 C 15,5 km/h (3 Bft)
29/03/2012 13:50 22,2 C 42 % 1022,9 hPa 0,0 mm 13,0 km/h (3 Bft) NE 45 2 min 0 W/m 8,7 C 22,2 C 15,8 km/h (3 Bft)
29/03/2012 14:00 22,0 C 40 % 1022,8 hPa 0,0 mm 13,0 km/h (3 Bft) E-NE 67 2 min 0 W/m 7,8 C 22,0 C 15,5 km/h (3 Bft)
29/03/2012 14:10 21,9 C 41 % 1022,7 hPa 0,0 mm 10,8 km/h (2 Bft) E 90 2 min 0 W/m 8,0 C 21,9 C 14,8 km/h (3 Bft)
29/03/2012 14:20 21,9 C 41 % 1022,6 hPa 0,0 mm 12,2 km/h (2 Bft) E-NE 67 2 min 0 W/m 8,0 C 21,9 C 16,6 km/h (3 Bft)
29/03/2012 14:30 21,9 C 41 % 1022,4 hPa 0,0 mm 13,0 km/h (3 Bft) N-NE 22 2 min 0 W/m 8,0 C 21,9 C 14,0 km/h (3 Bft)
29/03/2012 14:40 22,1 C 41 % 1022,2 hPa 0,0 mm 8,3 km/h (2 Bft) N-NE 22 2 min 0 W/m 8,2 C 22,1 C 8,6 km/h (2 Bft)
29/03/2012 14:50 22,1 C 40 % 1022,3 hPa 0,0 mm 16,2 km/h (3 Bft) N-NE 22 2 min 0 W/m 7,9 C 22,1 C 16,2 km/h (3 Bft)
29/03/2012 15:00 21,9 C 40 % 1022,2 hPa 0,0 mm 7,9 km/h (2 Bft) E-NE 67 2 min 0 W/m 7,7 C 21,9 C 11,9 km/h (2 Bft)
29/03/2012 15:10 21,9 C 39 % 1022,1 hPa 0,0 mm 19,4 km/h (3 Bft) N-NE 22 2 min 0 W/m 7,3 C 21,9 C 23,8 km/h (4 Bft)
29/03/2012 15:20 21,7 C 40 % 1022,0 hPa 0,0 mm 13,0 km/h (3 Bft) E-NE 67 2 min 0 W/m 7,5 C 21,7 C 20,9 km/h (4 Bft)
29/03/2012 15:30 21,7 C 39 % 1021,8 hPa 0,0 mm 11,9 km/h (2 Bft) NE 45 2 min 0 W/m 7,1 C 21,7 C 20,5 km/h (4 Bft)
29/03/2012 15:40 21,8 C 39 % 1021,7 hPa 0,0 mm 12,2 km/h (2 Bft) N-NE 22 2 min 0 W/m 7,2 C 21,8 C 19,1 km/h (3 Bft)
29/03/2012 15:50 21,8 C 38 % 1021,6 hPa 0,0 mm 11,5 km/h (2 Bft) E-NE 67 2 min 0 W/m 6,8 C 21,8 C 14,8 km/h (3 Bft)
29/03/2012 16:00 21,8 C 39 % 1021,4 hPa 0,0 mm 11,5 km/h (2 Bft) E-NE 67 2 min 0 W/m 7,2 C 21,8 C 15,8 km/h (3 Bft)
29/03/2012 16:10 21,8 C 39 % 1021,4 hPa 0,0 mm 8,3 km/h (2 Bft) N-NE 22 2 min 0 W/m 7,2 C 21,8 C 14,4 km/h (3 Bft)
29/03/2012 16:20 21,9 C 36 % 1021,2 hPa 0,0 mm 9,0 km/h (2 Bft) E-NE 67 2 min 0 W/m 6,1 C 21,9 C 9,0 km/h (2 Bft)
29/03/2012 16:30 21,9 C 37 % 1021,2 hPa 0,0 mm 6,5 km/h (2 Bft) E-NE 67 2 min 0 W/m 6,5 C 21,9 C 6,5 km/h (2 Bft)
29/03/2012 16:40 21,9 C 38 % 1021,0 hPa 0,0 mm 9,0 km/h (2 Bft) NE 45 0 min 0 W/m 6,9 C 21,9 C 11,9 km/h (2 Bft)
29/03/2012 16:50 21,9 C 38 % 1020,9 hPa 0,0 mm 11,9 km/h (2 Bft) E-NE 67 0 min 0 W/m 6,9 C 21,9 C 21,6 km/h (4 Bft)
29/03/2012 17:00 21,9 C 36 % 1020,7 hPa 0,0 mm 19,8 km/h (3 Bft) NE 45 0 min 0 W/m 6,1 C 21,9 C 20,5 km/h (4 Bft)
29/03/2012 17:10 21,6 C 35 % 1020,7 hPa 0,0 mm 9,7 km/h (2 Bft) N-NE 22 0 min 0 W/m 5,5 C 21,6 C 12,2 km/h (2 Bft)
29/03/2012 17:20 21,5 C 36 % 1020,7 hPa 0,0 mm 6,5 km/h (2 Bft) NE 45 2 min 0 W/m 5,8 C 21,5 C 9,7 km/h (2 Bft)
29/03/2012 17:30 21,4 C 36 % 1020,7 hPa 0,0 mm 9,4 km/h (2 Bft) N-NE 22 2 min 0 W/m 5,7 C 21,4 C 13,7 km/h (3 Bft)
29/03/2012 17:40 21,2 C 33 % 1020,6 hPa 0,0 mm 5,8 km/h (2 Bft) N 360 2 min 0 W/m 4,3 C 21,2 C 9,0 km/h (2 Bft)
29/03/2012 17:50 21,2 C 33 % 1020,6 hPa 0,0 mm 6,1 km/h (2 Bft) NE 45 2 min 0 W/m 4,3 C 21,2 C 7,6 km/h (2 Bft)
29/03/2012 18:00 21,1 C 34 % 1020,5 hPa 0,0 mm 7,9 km/h (2 Bft) NE 45 2 min 0 W/m 4,6 C 21,1 C 13,7 km/h (3 Bft)
29/03/2012 18:10 21,1 C 36 % 1020,6 hPa 0,0 mm 4,0 km/h (1 Bft) NE 45 0 min 0 W/m 5,4 C 21,1 C 6,8 km/h (2 Bft)
29/03/2012 18:20 21,0 C 34 % 1020,4 hPa 0,0 mm 6,1 km/h (2 Bft) N-NE 22 0 min 0 W/m 4,5 C 21,0 C 8,6 km/h (2 Bft)
29/03/2012 18:30 20,9 C 34 % 1020,5 hPa 0,0 mm 6,8 km/h (2 Bft) N-NE 22 2 min 0 W/m 4,4 C 20,9 C 10,8 km/h (2 Bft)
29/03/2012 18:40 20,8 C 34 % 1020,5 hPa 0,0 mm 6,5 km/h (2 Bft) N-NE 22 2 min 0 W/m 4,4 C 20,8 C 7,6 km/h (2 Bft)
29/03/2012 18:50 20,6 C 34 % 1020,4 hPa 0,0 mm 6,5 km/h (2 Bft) NE 45 2 min 0 W/m 4,2 C 20,6 C 7,6 km/h (2 Bft)
29/03/2012 19:00 20,5 C 35 % 1020,5 hPa 0,0 mm 2,2 km/h (1 Bft) E-NE 67 2 min 0 W/m 4,5 C 20,5 C 2,9 km/h (1 Bft)
29/03/2012 19:10 20,4 C 34 % 1020,5 hPa 0,0 mm 3,6 km/h (1 Bft) NE 45 2 min 0 W/m 4,0 C 20,4 C 4,3 km/h (1 Bft)
29/03/2012 19:20 20,2 C 35 % 1020,4 hPa 0,0 mm 3,2 km/h (1 Bft) NE 45 2 min 0 W/m 4,2 C 20,2 C 3,6 km/h (1 Bft)
29/03/2012 19:30 19,9 C 35 % 1020,5 hPa 0,0 mm 6,8 km/h (2 Bft) N-NE 22 2 min 0 W/m 4,0 C 19,9 C 8,6 km/h (2 Bft)
29/03/2012 19:40 19,6 C 34 % 1020,5 hPa 0,0 mm 6,8 km/h (2 Bft) N-NE 22 2 min 0 W/m 3,3 C 19,6 C 12,2 km/h (2 Bft)
29/03/2012 19:50 19,3 C 34 % 1020,5 hPa 0,0 mm 2,9 km/h (1 Bft) N-NE 22 2 min 0 W/m 3,0 C 19,3 C 4,3 km/h (1 Bft)
29/03/2012 20:00 18,8 C 34 % 1020,5 hPa 0,0 mm 6,8 km/h (2 Bft) NE 45 2 min 0 W/m 2,6 C 18,8 C 6,8 km/h (2 Bft)
29/03/2012 20:10 18,3 C 34 % 1020,7 hPa 0,0 mm 7,9 km/h (2 Bft) N-NE 22 2 min 0 W/m 2,2 C 18,3 C 9,7 km/h (2 Bft)
29/03/2012 20:20 17,9 C 34 % 1020,7 hPa 0,0 mm 5,8 km/h (2 Bft) NE 45 0 min 0 W/m 1,8 C 17,9 C 8,3 km/h (2 Bft)
29/03/2012 20:30 17,5 C 35 % 1020,8 hPa 0,0 mm 2,9 km/h (1 Bft) NE 45 0 min 0 W/m 1,9 C 17,5 C 3,6 km/h (1 Bft)
29/03/2012 20:40 17,1 C 36 % 1020,9 hPa 0,0 mm 3,2 km/h (1 Bft) NE 45 0 min 0 W/m 1,9 C 17,1 C 4,0 km/h (1 Bft)
29/03/2012 20:50 16,6 C 37 % 1021,0 hPa 0,0 mm 3,6 km/h (1 Bft) NE 45 0 min 0 W/m 1,9 C 16,6 C 6,1 km/h (2 Bft)
29/03/2012 21:00 16,1 C 37 % 1020,9 hPa 0,0 mm 2,5 km/h (1 Bft) N-NE 22 0 min 0 W/m 1,4 C 16,1 C 3,6 km/h (1 Bft)
29/03/2012 21:10 15,8 C 38 % 1021,0 hPa 0,0 mm 0,0 km/h (0 Bft) N-NE 22 0 min 0 W/m 1,5 C 15,8 C 3,2 km/h (1 Bft)
29/03/2012 21:20 15,5 C 38 % 1021,0 hPa 0,0 mm 1,8 km/h (1 Bft) N-NE 22 0 min 0 W/m 1,3 C 15,5 C 1,8 km/h (1 Bft)
29/03/2012 21:30 15,3 C 39 % 1021,1 hPa 0,0 mm 2,5 km/h (1 Bft) N-NE 22 0 min 0 W/m 1,4 C 15,3 C 3,2 km/h (1 Bft)
29/03/2012 21:40 15,0 C 39 % 1021,1 hPa 0,0 mm 3,2 km/h (1 Bft) N-NE 22 0 min 0 W/m 1,2 C 15,0 C 7,6 km/h (2 Bft)
29/03/2012 21:50 14,9 C 40 % 1021,2 hPa 0,0 mm 1,4 km/h (1 Bft) N-NE 22 0 min 0 W/m 1,4 C 14,9 C 4,0 km/h (1 Bft)
29/03/2012 22:00 14,6 C 40 % 1021,3 hPa 0,0 mm 2,9 km/h (1 Bft) N-NE 22 0 min 0 W/m 1,2 C 14,6 C 4,0 km/h (1 Bft)
29/03/2012 22:10 14,4 C 41 % 1021,4 hPa 0,0 mm 2,2 km/h (1 Bft) NE 45 0 min 0 W/m 1,3 C 14,4 C 3,6 km/h (1 Bft)
29/03/2012 22:20 14,1 C 41 % 1021,4 hPa 0,0 mm 2,2 km/h (1 Bft) NE 45 0 min 0 W/m 1,1 C 14,1 C 3,6 km/h (1 Bft)
29/03/2012 22:30 13,8 C 42 % 1021,5 hPa 0,0 mm 1,4 km/h (1 Bft) N-NE 22 0 min 0 W/m 1,1 C 13,8 C 3,6 km/h (1 Bft)
29/03/2012 22:40 13,4 C 43 % 1021,5 hPa 0,0 mm 0,4 km/h (0 Bft) E-NE 67 0 min 0 W/m 1,1 C 13,4 C 0,4 km/h (0 Bft)
29/03/2012 22:50 13,0 C 43 % 1021,5 hPa 0,0 mm 2,5 km/h (1 Bft) N-NE 22 0 min 0 W/m 0,7 C 13,0 C 4,0 km/h (1 Bft)
29/03/2012 23:00 12,7 C 44 % 1021,5 hPa 0,0 mm 0,7 km/h (0 Bft) N-NE 22 0 min 0 W/m 0,8 C 12,7 C 3,2 km/h (1 Bft)
29/03/2012 23:10 12,4 C 45 % 1021,6 hPa 0,0 mm 1,8 km/h (1 Bft) NE 45 0 min 0 W/m 0,8 C 12,4 C 4,0 km/h (1 Bft)
29/03/2012 23:20 12,2 C 45 % 1021,5 hPa 0,0 mm 1,1 km/h (1 Bft) N-NE 22 0 min 0 W/m 0,6 C 12,2 C 4,3 km/h (1 Bft)
29/03/2012 23:30 11,9 C 46 % 1021,5 hPa 0,0 mm 0,0 km/h (0 Bft) N 360 0 min 0 W/m 0,7 C 11,9 C 0,0 km/h (0 Bft)
29/03/2012 23:40 11,5 C 47 % 1021,6 hPa 0,0 mm 1,4 km/h (1 Bft) N 360 0 min 0 W/m 0,6 C 11,5 C 6,1 km/h (2 Bft)
29/03/2012 23:50 11,1 C 47 % 1021,7 hPa 0,0 mm 0,7 km/h (0 Bft) N 360 0 min 0 W/m 0,2 C 11,1 C 0,7 km/h (0 Bft)
_ Min-Heure 08:20 17:50 19:20 - 23:30 - - - - 23:50 08:20 23:30
Minimum _ 5,0 C 33 % 1020,4 hPa - 0,0 km/h (0 Bft) - - - - 0,2 C 5,0 C 0,0 km/h (0 Bft)
_ Max-Heure 13:50 09:10 00:20 23:50 17:00 - - 20:10 23:50 12:10 13:50 15:10
Maximum _ 22,2 C 86 % 1023,7 hPa 0,0 mm 19,8 km/h
NE (3 Bft)
- - 2 min 0 W/m 10,9 C 22,2 C 23,8 km/h
N-NE (4 Bft)
Moyenne _ 14,3 C 57 % 1022,2 hPa #0,0 mm 3,7 km/h (1 Bft) N-NE - #2:16 h 0 W/m 5,0 C 14,3 C 5,4 km/h (2 Bft)
Saint Bonnet de Bellac- Haute Vienne - France